TimeHST,TemperatureF,Dew PointF,Humidity,Sea Level PressureIn,VisibilityMPH,Wind Direction,Wind SpeedMPH,Gust SpeedMPH,PrecipitationIn,Events,Conditions,WindDirDegrees,DateUTC
12:57 AM,75.2,71.1,87,30.00,10.0,Calm,Calm,-,N/A,,Mostly Cloudy,0,2012-12-06 10:57:00
1:09 AM,-9999,-9999,N/A,30.01,10.0,Calm,Calm,-,N/A,,Scattered Clouds,0,2012-12-06 11:09:00
1:23 AM,75.2,71.6,89,30.01,10.0,Calm,Calm,-,N/A,,Mostly Cloudy,0,2012-12-06 11:23:00
1:45 AM,75.2,71.6,89,30.00,10.0,Calm,Calm,-,N/A,,Scattered Clouds,0,2012-12-06 11:45:00
1:57 AM,75.2,72.0,90,29.99,10.0,Calm,Calm,-,N/A,,Partly Cloudy,0,2012-12-06 11:57:00
2:35 AM,75.2,69.8,83,29.99,10.0,SSW,3.5,-,N/A,,Mostly Cloudy,200,2012-12-06 12:35:00
2:57 AM,73.4,69.1,86,29.98,10.0,Calm,Calm,-,N/A,,Overcast,0,2012-12-06 12:57:00
3:12 AM,73.4,69.8,88,29.99,10.0,Calm,Calm,-,N/A,,Mostly Cloudy,0,2012-12-06 13:12:00
3:57 AM,73.4,70.0,89,29.97,10.0,Calm,Calm,-,N/A,,Partly Cloudy,0,2012-12-06 13:57:00
4:29 AM,73.4,71.6,94,29.98,6.2,Calm,Calm,-,N/A,,Mostly Cloudy,0,2012-12-06 14:29:00
4:57 AM,73.4,72.0,95,29.97,10.0,ENE,5.8,-,N/A,,Overcast,70,2012-12-06 14:57:00
5:57 AM,75.2,70.0,84,29.97,10.0,Calm,Calm,-,N/A,,Overcast,0,2012-12-06 15:57:00
6:42 AM,75.2,73.4,94,30.00,6.2,Calm,Calm,-,N/A,,Mostly Cloudy,0,2012-12-06 16:42:00
6:52 AM,75.2,73.4,94,30.00,6.2,Calm,Calm,-,N/A,,Overcast,0,2012-12-06 16:52:00
6:57 AM,75.2,73.0,93,29.99,10.0,Calm,Calm,-,N/A,,Overcast,0,2012-12-06 16:57:00
7:16 AM,75.2,73.4,94,30.01,10.0,SE,5.8,-,N/A,,Overcast,130,2012-12-06 17:16:00
7:57 AM,75.2,69.8,83,30.01,10.0,SSE,3.5,-,N/A,,Scattered Clouds,160,2012-12-06 17:57:00
8:57 AM,75.2,69.8,83,30.01,10.0,ESE,4.6,-,N/A,,Scattered Clouds,110,2012-12-06 18:57:00
9:57 AM,77.7,70.0,77,30.01,10.0,NE,9.2,-,N/A,,Overcast,40,2012-12-06 19:57:00
10:57 AM,77.9,70.0,76,29.98,10.0,NNE,8.1,-,N/A,,Partly Cloudy,20,2012-12-06 20:57:00
11:57 AM,78.8,69.1,72,29.96,10.0,South,5.8,-,N/A,,Partly Cloudy,190,2012-12-06 21:57:00
12:57 PM,79.7,68.0,67,29.93,10.0,East,10.4,18.4,N/A,,Overcast,100,2012-12-06 22:57:00
1:57 PM,80.6,68.0,65,29.91,10.0,East,12.7,19.6,N/A,,Scattered Clouds,100,2012-12-06 23:57:00
2:57 PM,80.6,68.0,65,29.90,10.0,East,11.5,17.3,N/A,,Scattered Clouds,90,2012-12-07 00:57:00
3:57 PM,79.2,68.4,69,29.90,10.0,East,10.4,16.1,N/A,,Overcast,90,2012-12-07 01:57:00
4:57 PM,78.8,68.0,69,29.90,10.0,ESE,5.8,-,N/A,,Scattered Clouds,110,2012-12-07 02:57:00
5:57 PM,78.8,68.0,69,29.91,10.0,ESE,6.9,-,N/A,,Scattered Clouds,120,2012-12-07 03:57:00
6:57 PM,75.7,69.8,82,29.91,10.0,SSW,4.6,-,N/A,,Clear,210,2012-12-07 04:57:00
7:57 PM,75.2,69.8,83,29.92,10.0,Calm,Calm,-,N/A,,Clear,0,2012-12-07 05:57:00
8:57 PM,74.7,68.2,80,29.93,10.0,Calm,Calm,-,N/A,,Clear,0,2012-12-07 06:57:00
9:57 PM,74.5,66.9,77,29.94,10.0,Calm,Calm,-,N/A,,Scattered Clouds,0,2012-12-07 07:57:00
10:57 PM,72.9,66.9,82,29.95,10.0,South,3.5,-,N/A,,Mostly Cloudy,190,2012-12-07 08:57:00
11:19 PM,73.4,66.2,78,29.95,6.2,South,3.5,-,N/A,,Mostly Cloudy,190,2012-12-07 09:19:00
11:57 PM,72.9,66.9,82,29.94,10.0,Calm,Calm,-,N/A,,Scattered Clouds,0,2012-12-07 09:57:00